Tracking 17147 objects as of 5-July-2015
HD Live streaming from Space Station

ERS 2

Track ERS 2 now!
10-day predictions
ERS 2 is classified as:


NORAD ID: 23560
Int'l Code: 1995-021A
Perigee: 522.8 km
Apogee: 527.9 km
Inclination: 98.5 °
Period: 95.0 minutes
Semi major axis: 6896 km
RCS: 9.2311 m2 (large)
Launch date: April 21, 1995
Source: European Space Agency (ESA)

Earth resources spacecraft; measure ocean surface and waves, temperatures; monitor ozone and ozone-destroying gases; ocean currents and changes in Arctic and Antarctic ice.
Your satellite tracking list
Your tracking list is empty





NASA's NSSDC Master Catalog

Two Line Element Set (TLE):
1 23560U 95021A   15185.77605434  .00004623  00000-0  24551-3 0  9994
2 23560 098.5176 076.7257 0003653 178.2383 181.8860 15.15917040 67106

Source of the keplerian elements: AFSPC

N2YO: 282